Booneville, Arkansas, United States (72927)
Lat: 35.14N, Lon: 93.92W
Wx Zone: ARZ030
Local Info
Past Weather Observations for Today

NOTE: This archive is for the closest National Weather Service station to Booneville. Information may differ from the station used for current weather conditions.

Time Weather Temperature Dewpoint Humidity Pressure Winds Precip Visibility
21:53
Overcast
66°F / 19°C 63°F / 17°C 88% 30.06 in
(1018 mb)
SSW 3.5 mph
(SSW 6 kph)
0.01 in
(0.25 mm)
10SM
20:53
Overcast
Light Rain
72°F / 22°C 55°F / 13°C 57% 30.06 in
(1018 mb)
SW 11.5 mph
(SW 19 kph)
0.00 in
(0.00 mm)
10SM
19:53
Mostly Cloudy
72°F / 22°C 57°F / 14°C 61% 30.06 in
(1018 mb)
S 3.5 mph
(S 6 kph)
- 10SM
18:53
Overcast
75°F / 24°C 54°F / 12°C 47% 30.06 in
(1018 mb)
S 4.6 mph
(S 7 kph)
- 10SM
17:53
Partly Cloudy
79°F / 26°C 52°F / 11°C 39% 30.04 in
(1017 mb)
SSE 4.6 mph
(SSE 7 kph)
- 10SM
16:53
Partly Cloudy
79°F / 26°C 50°F / 10°C 37% 30.04 in
(1017 mb)
Calm - 10SM
15:53
Partly Cloudy
81°F / 27°C 52°F / 11°C 37% 30.06 in
(1018 mb)
Variable 3.5 mph
(Variable 6 kph)
- 10SM
14:53
Partly Cloudy
79°F / 26°C 52°F / 11°C 39% 30.06 in
(1018 mb)
NE 3.5 mph
(NE 6 kph)
- 10SM
13:53
Partly Cloudy
79°F / 26°C 52°F / 11°C 39% 30.12 in
(1020 mb)
Variable 3.5 mph
(Variable 6 kph)
- 10SM
12:53
Partly Cloudy
79°F / 26°C 54°F / 12°C 42% 30.12 in
(1020 mb)
SW 3.5 mph
(SW 6 kph)
- 10SM
11:53
Mostly Cloudy
79°F / 26°C 54°F / 12°C 42% 30.15 in
(1021 mb)
SW 8.1 mph
(SW 13 kph)
- 10SM
10:53
Mostly Cloudy
75°F / 24°C 54°F / 12°C 47% 30.15 in
(1021 mb)
S 10.4 mph
(S 17 kph)
- 10SM
09:53
Clear
73°F / 23°C 55°F / 13°C 53% 30.15 in
(1021 mb)
Variable 4.6 mph
(Variable 7 kph)
- 10SM
08:53
Clear
68°F / 20°C 55°F / 13°C 64% 30.18 in
(1022 mb)
NE 6.9 mph
(NE 11 kph)
- 10SM
07:53
Clear
63°F / 17°C 54°F / 12°C 73% 30.18 in
(1022 mb)
ENE 5.8 mph
(ENE 9 kph)
- 10SM
06:53
Partly Cloudy
59°F / 15°C 54°F / 12°C 82% 30.18 in
(1022 mb)
ENE 4.6 mph
(ENE 7 kph)
- 9SM
05:53
Clear
57°F / 14°C 52°F / 11°C 82% 30.15 in
(1021 mb)
ENE 3.5 mph
(ENE 6 kph)
- 8SM
04:53
Clear
55°F / 13°C 52°F / 11°C 88% 30.15 in
(1021 mb)
ENE 4.6 mph
(ENE 7 kph)
- 10SM
03:53
Clear
57°F / 14°C 54°F / 12°C 88% 30.15 in
(1021 mb)
NE 4.6 mph
(NE 7 kph)
- 10SM
02:53
Clear
57°F / 14°C 54°F / 12°C 88% 30.15 in
(1021 mb)
NE 3.5 mph
(NE 6 kph)
- 10SM
01:53
Clear
57°F / 14°C 52°F / 11°C 82% 30.15 in
(1021 mb)
Calm - 10SM
00:53
Clear
59°F / 15°C 52°F / 11°C 77% 30.15 in
(1021 mb)
NE 3.5 mph
(NE 6 kph)
- 10SM
Time Weather Temperature Dewpoint Humidity Pressure Winds Precip Visibility


Weather for websites

WeatherForYou.com, LLC is not responsible for any damages or problems caused by this service. Current weather conditions are obtained from the closest station including government and personal stations which may have varying degrees of accuracy. Weather forecasts are derived from the NOAA NDFD. Like all things, this site belongs to Jesus Christ... He just trusts me to maintain it. If you have any questions or comments email webmaster@weatherforyou.com

Copyright © 2014, WeatherForYou.com LLC. All rights reserved.